Tracking 19297 objects as of 21-Nov-2018
HD Live streaming from Space Station
objects crossing your sky now

DMSP 5D-2 F6 DEB

Track DMSP 5D-2 F6 DEB now!
10-day predictions


NORAD ID: 40918
Int'l Code: 1982-118L
Perigee: 582.1 km
Apogee: 767.7 km
Inclination: 98.5 °
Period: 98.1 minutes
Semi major axis: 7045 km
RCS: Unknown
Launch date: December 21, 1982
Source: United States (US)
Launch site: AIR FORCE WESTERN TEST RANGE (AFWTR)

Note: This is SATELLITE DEBRIS
aabbcc
Your satellite tracking list
Your tracking list is empty




NASA's NSSDC Master Catalog

Two Line Element Set (TLE):
1 40918U 82118L   18324.64270893 +.00003027 +00000-0 +47344-3 0  9996
2 40918 098.4524 195.8935 0131719 212.5046 146.7998 14.67910333150566
Source of the keplerian elements: AFSPC